Sivas, Turkey

12:41 AM +03 on February 25, 2017 (GMT +0300)
Sivas

Weather History for LTAR - December, 2012

Change the Weather History Date:

Monday, December 10, 2012

  Actual Average Record
Temperature  
Mean Temperature 38 °F -  
Max Temperature 45 °F 36 °F - ()
Min Temperature 32 °F 23 °F - ()
Degree Days  
Heating Degree Days 26    
Moisture  
Dew Point 30 °F    
Average Humidity 86    
Maximum Humidity 93    
Minimum Humidity 53    
Precipitation  
Precipitation 0.02 in 0.06 in - ()
Sea Level Pressure  
Sea Level Pressure 29.85 in    
Wind  
Wind Speed 12 mph ()    
Max Wind Speed 23 mph    
Max Gust Speed -    
Visibility 6.6 miles    
Events Rain , Snow    
T = Trace of Precipitation, MM = Missing Value Source: Averaged Metar Reports

Daily Weather History Graph

Daily Weather History Graph

Search for Another Location

Airport or City:

Trip Planner

Search our weather history database for the weather conditions in past years. The results will help you decide how hot, cold, wet, or windy it might be!

Date:

Astronomy

Dec. 10, 2012 Rise Set
Actual Time 6:42 AM EET 4:07 PM EET
Civil Twilight 6:12 AM EET 4:38 PM EET
Nautical Twilight 5:38 AM EET 5:11 PM EET
Astronomical Twilight 5:05 AM EET 5:44 PM EET
Moon 3:01 AM EET (12/10) 1:41 PM EET (12/10)
Length of Visible Light 10h 25m
Length of Day
9h 24m
Waning Crescent, 12% of the Moon is Illuminated
Dec 10
Waning Crescent
Dec 13
New
Dec 20
First Quarter
Dec 28
Full
Jan 5
Last Quarter

Hourly Weather History & Observations

Time (EET) Temp. Windchill Dew Point Humidity Pressure Visibility Wind Dir Wind Speed Gust Speed Precip Events Conditions
12:50 AM 30.2 °F 18.9 °F 28.4 °F 93% 30.01 in 6.2 mi SSE 16.1 mph - N/A   Mostly Cloudy
2:00 AM 34 °F - 29 °F 73%  in 9 mi ENE 2.3 mph - -   Scattered Clouds
2:50 AM 28.4 °F 19.7 °F 26.6 °F 93% 29.98 in 6.2 mi ESE 9.2 mph - N/A   Mostly Cloudy
3:50 AM 28.4 °F 19.1 °F 26.6 °F 93% 29.98 in 6.2 mi SE 10.4 mph - N/A   Mostly Cloudy
4:50 AM 26.6 °F 15.7 °F 24.8 °F 93% 29.95 in 6.2 mi SE 12.7 mph - N/A   Scattered Clouds
5:50 AM 28.4 °F 17.5 °F 26.6 °F 93% 29.95 in 6.2 mi SE 13.8 mph - N/A   Scattered Clouds
6:50 AM 30.2 °F 19.8 °F 28.4 °F 93% 29.92 in 6.2 mi ESE 13.8 mph - N/A   Mostly Cloudy
7:50 AM 32.0 °F 22.1 °F 30.2 °F 93% 29.92 in 6.2 mi ESE 13.8 mph - N/A   Mostly Cloudy
8:00 AM 35 °F - 30 °F 74%  in 9 mi NNE 2.3 mph - -   Mostly Cloudy
8:50 AM 33.8 °F 24.3 °F 30.2 °F 87% 29.92 in 6.2 mi SE 13.8 mph - N/A Rain , Snow Light Rain
9:50 AM 35.6 °F 25.9 °F 32.0 °F 87% 29.89 in 6.2 mi SE 16.1 mph - N/A   Mostly Cloudy
10:50 AM 35.6 °F 25.2 °F 32.0 °F 87% 29.86 in 6.2 mi SE 18.4 mph - N/A   Mostly Cloudy
11:50 AM 35.6 °F 25.5 °F 32.0 °F 87% 29.83 in 6.2 mi SE 17.3 mph - N/A   Mostly Cloudy
12:50 PM 35.6 °F 26.6 °F 32.0 °F 87% 29.83 in 6.2 mi ESE 13.8 mph - N/A   Mostly Cloudy
1:50 PM 35.6 °F 25.2 °F 32.0 °F 87% 29.80 in 6.2 mi ESE 18.4 mph - N/A   Mostly Cloudy
2:00 PM 44 °F - 33 °F 53%  in 9 mi ESE 3.5 mph - -   Mostly Cloudy
3:20 PM 35.6 °F 24.0 °F 32.0 °F 87% 29.77 in 6.2 mi SSE 23.0 mph - N/A   Mostly Cloudy
3:50 PM 35.6 °F 25.5 °F 32.0 °F 87% 29.77 in 6.2 mi SE 17.3 mph - N/A   Mostly Cloudy
4:50 PM 35.6 °F 25.9 °F 32.0 °F 87% 29.77 in 6.2 mi SE 16.1 mph - N/A   Mostly Cloudy
5:50 PM 35.6 °F 24.2 °F 30.2 °F 81% 29.74 in 6.2 mi SE 21.9 mph - N/A   Mostly Cloudy
6:50 PM 35.6 °F 24.5 °F 32.0 °F 87% 29.74 in 6.2 mi SE 20.7 mph - N/A Snow Light Snow
7:50 PM 33.8 °F 21.9 °F 32.0 °F 93% 29.74 in 6.2 mi SE 21.9 mph - N/A   Mostly Cloudy
8:00 PM 40 °F - 32 °F 64%  in 9 mi East 2.3 mph - -   Partly Cloudy
8:50 PM 33.8 °F 23.5 °F 32.0 °F 93% 29.74 in 6.2 mi SE 16.1 mph - N/A   Overcast
11:50 PM 33.8 °F 22.5 °F 32.0 °F 93% 29.71 in 6.2 mi SE 19.6 mph - N/A Rain Light Rain